This demonstration page uses our WeatherBlox Daily Observations layout. Learn more.

Left ArrowRight Arrow

Hourly Observations for May 8, 2015

Temp ( °F °C ) Dew Point ( °F °C ) Humidity (%) Winds ( mph kmh ) Pressure ( in mb ) Visibility ( mi km ) Precip ( " mm )
12:51 am 00:51 Clear 62 16.7 40 4.4 44 44 WNW 6 9 29.71 1006 10 16 0.00 0.00
1:51 am 01:51 Clear 62 16.7 40 4.4 44 44 W 9 15 29.70 1006 10 16 0.00 0.00
2:51 am 02:51 Clear 59 15 40 4.4 49 49 Calm 29.71 1006 10 16 0.00 0.00
3:51 am 03:51 Clear 53 11.7 38 3.3 57 57 E 5 7 29.72 1007 10 16 0.00 0.00
4:51 am 04:51 Clear 53 11.7 39 3.9 59 59 SE 6 9 29.73 1007 10 16 0.00 0.00
5:51 am 05:51 Sunny 55 12.8 39 3.9 55 55 E 12 19 29.74 1007 10 16 0.00 0.00
6:51 am 06:51 Sunny 63 17.2 38 3.3 40 40 E 8 13 29.74 1007 10 16 0.00 0.00
7:51 am 07:51 Sunny 67 19.4 37 2.8 33 33 S 10 17 29.73 1007 10 16 0.00 0.00
8:51 am 08:51 Sunny 71 21.7 34 1.1 26 26 S 20 31 29.73 1007 10 16 0.00 0.00
9:51 am 09:51 Sunny 74 23.3 28 -2.2 18 18 SSE 20 31 29.71 1006 10 16 0.00 0.00
10:51 am 10:51 Sunny 77 25 24 -4.4 14 14 S 25 41 29.69 1006 10 16 0.00 0.00
11:51 am 11:51 Sunny 79 26.1 20 -6.7 11 11 S 22 35 29.67 1005 10 16 0.00 0.00
12:51 pm 12:51 Sunny 81 27.2 16 -8.9 9 9 SW 24 39 29.65 1004 10 16 0.00 0.00
1:51 pm 13:51 Sunny with Light Rain 82 27.8 17 -8.3 9 9 SSW 18 30 29.63 1004 10 16 0.00 0.03
2:51 pm 14:51 Sunny 81 27.2 16 -8.9 9 9 SW 15 24 29.63 1004 10 16 0.00 0.03
3:23 pm 15:23 Sunny 78 25.6 33 0.6 19 19 W 30 48 29.56 1001 10 16 0.00 0.00
3:51 pm 15:51 Sunny 77 25 33 0.6 20 20 WNW 30 48 29.66 1004 10 16 0.00 0.03
4:51 pm 16:51 Sunny 74 23.3 32 0 21 21 WNW 20 31 29.67 1005 10 16 0.00 0.00
5:51 pm 17:51 Sunny 74 23.3 20 -6.7 13 13 W 24 39 29.68 1005 10 16 0.00 0.00
6:51 pm 18:51 Sunny 69 20.6 28 -2.2 22 22 W 15 24 29.70 1006 10 16 0.00 0.00
7:51 pm 19:51 Clear 65 18.3 31 -0.6 28 28 NW 21 33 29.74 1007 10 16 0.00 0.00
8:51 pm 20:51 Clear 63 17.2 34 1.1 34 34 NW 17 28 29.76 1008 10 16 0.00 0.00
9:51 pm 21:51 Clear 60 15.6 35 1.7 39 39 NW 16 26 29.78 1009 10 16 0.00 0.00
10:51 pm 22:51 Clear 58 14.4 35 1.7 42 42 NW 13 20 29.80 1009 10 16 0.00 0.00
11:51 pm 23:51 Clear 58 14.4 32 0 38 38 NW 14 22 29.80 1009 10 16 0.00 0.00

Powered by AerisWeather